Change the Weather History Date:

Tuesday, January 27, 2015

  Actual Average Record
Temperature  
Mean Temperature 53 °F 40 °F  
Max Temperature 72 °F 51 °F 78 °F (1914)
Min Temperature 34 °F 29 °F 6 °F (1893)
Degree Days  
Heating Degree Days 12 25  
Month to date heating degree days 707 695  
Since 1 July heating degree days 1985 1994  
Growing Degree Days 4 (Base 50)    
Moisture  
Dew Point 32 °F    
Average Humidity 47    
Maximum Humidity 79    
Minimum Humidity 14    
Precipitation  
Precipitation 0.00 in 0.10 in 2.51 in (2009)
Month to date precipitation 2.16 2.43  
Year to date precipitation 2.16 2.43  
Sea Level Pressure  
Sea Level Pressure 30.11 in    
Wind  
Wind Speed 4 mph (WSW)    
Max Wind Speed 9 mph    
Max Gust Speed 10 mph    
Visibility 10 miles    
Events      
T = Trace of Precipitation, MM = Missing Value Source: NWS Daily Summary

Daily Weather History Graph

Daily Weather History Graph

Search for Another Location

Airport or City:

Trip Planner

Search our weather history database for the weather conditions in past years. The results will help you decide how hot, cold, wet, or windy it might be!

Date:

Astronomy

Jan. 27, 2015 Rise Set
Actual Time 7:20 AM CST 5:40 PM CST
Civil Twilight 6:53 AM CST 6:07 PM CST
Nautical Twilight 6:22 AM CST 6:37 PM CST
Astronomical Twilight 5:52 AM CST 7:08 PM CST
Moon 12:02 PM CST (1/27) 12:52 AM CST (1/27)
Length of Visible Light 11h 13m
Length of Day
10h 19m
First Quarter, 56% of the Moon is Illuminated
Jan 27
First Quarter
Feb 3
Full
Feb 11
Last Quarter
Feb 18
New
Feb 25
First Quarter

Hourly Weather History & Observations

Time (CST) Temp. Windchill Dew Point Humidity Pressure Visibility Wind Dir Wind Speed Gust Speed Precip Events Conditions
12:53 AM 44.1 °F 40.1 °F 35.1 °F 71% 30.04 in 10.0 mi WSW 6.9 mph - N/A   Clear
1:53 AM 44.1 °F 42.5 °F 35.1 °F 71% 30.04 in 10.0 mi SSW 3.5 mph - N/A   Clear
2:53 AM 39.0 °F - 33.1 °F 79% 30.05 in 10.0 mi Calm Calm - N/A   Clear
3:53 AM 39.0 °F 34.8 °F 34.0 °F 82% 30.06 in 10.0 mi West 5.8 mph - N/A   Clear
4:53 AM 39.9 °F 34.5 °F 34.0 °F 79% 30.08 in 10.0 mi West 8.1 mph - N/A   Clear
5:53 AM 39.9 °F 35.1 °F 34.0 °F 79% 30.10 in 10.0 mi WSW 6.9 mph - N/A   Clear
6:53 AM 39.9 °F 35.8 °F 34.0 °F 79% 30.12 in 10.0 mi SW 5.8 mph - N/A   Clear
7:53 AM 39.0 °F 34.0 °F 34.0 °F 82% 30.15 in 10.0 mi WSW 6.9 mph - N/A   Clear
8:53 AM 46.0 °F 41.9 °F 37.0 °F 71% 30.17 in 10.0 mi WSW 8.1 mph - N/A   Clear
9:53 AM 52.0 °F - 37.9 °F 59% 30.17 in 10.0 mi SW 3.5 mph - N/A   Clear
10:53 AM 60.1 °F - 35.1 °F 39% 30.17 in 10.0 mi Calm Calm - N/A   Clear
11:53 AM 63.0 °F - 33.1 °F 33% 30.16 in 10.0 mi Calm Calm - N/A   Clear
12:53 PM 66.9 °F - 28.9 °F 24% 30.14 in 10.0 mi Calm Calm - N/A   Clear
1:53 PM 69.1 °F - 27.0 °F 21% 30.12 in 10.0 mi WSW 5.8 mph - N/A   Clear
2:53 PM 71.1 °F - 24.1 °F 17% 30.10 in 10.0 mi WSW 5.8 mph - N/A   Clear
3:53 PM 71.1 °F - 19.0 °F 14% 30.10 in 10.0 mi West 4.6 mph - N/A   Clear
4:53 PM 72.0 °F - 23.0 °F 16% 30.09 in 10.0 mi Calm Calm - N/A   Clear
5:53 PM 62.1 °F - 27.0 °F 26% 30.10 in 10.0 mi Calm Calm - N/A   Clear
6:53 PM 55.0 °F - 34.0 °F 45% 30.10 in 10.0 mi Calm Calm - N/A   Clear
7:53 PM 48.9 °F - 35.1 °F 59% 30.11 in 10.0 mi Calm Calm - N/A   Clear
8:53 PM 48.0 °F - 34.0 °F 58% 30.11 in 10.0 mi NNE 3.5 mph - N/A   Clear
9:53 PM 48.9 °F - 33.1 °F 54% 30.11 in 10.0 mi ENE 3.5 mph - N/A   Clear
10:53 PM 46.0 °F 43.1 °F 33.1 °F 61% 30.11 in 10.0 mi NE 5.8 mph - N/A   Clear
11:53 PM 46.0 °F 42.5 °F 33.1 °F 61% 30.12 in 10.0 mi ENE 6.9 mph - N/A   Clear